sat.trackr.live / text

‹ back to catalog

UNKNOWN

NORAD 84236

UNKNOWN UNKNOWN UNKNOWN

§ Identity

Operator
Country
Launch date
Launch site
Launch vehicle
Mass (kg)
RCS (m²)

External: N2YO · Heavens-Above

§ Orbital elements

Epoch: 2026-05-23T11:14:42.408096Z

Period
547.86 min
Inclination
9.0817°
Eccentricity
0.6894592
Mean motion
2.62840783 rev/d
Perigee alt
509.3 km
Apogee alt
31,092.2 km
Semi-major
22,178.9 km
B*
6.6089e-3
RAAN
261.9706°
Arg perigee
238.0835°
Mean anomaly
37.3272°
Rev number
11,823

§ Raw data

UNKNOWN1 84236U          26143.46854639  .00001161  00000+0  66089-2 0  99932 84236   9.0817 261.9706 6894592 238.0835  37.3272  2.62840783118232

JSON: /api/v1/satellites/84236 · /tle

For live sub-satellite position, see the globe view (requires WebGL).

§ Visibility from observer

Set your observer location to see the next 7 days of passes ≥ 10°. The values pass through the URL so the page stays shareable.

No JS? Fill the form by hand. The geolocation button needs JavaScript.